Wetbulb
79.02 77.05 76.40 76.37 76.29 73.99 74.75 74.71 77.09 76.54 76.15 75.28 75.44 74.38 74.18 72.93 70.45 70.73 68.94 68.33 67.67 66.00
78.85 77.63 77.09 77.77 78.76 76.33 75.58 75.55 75.78 75.71 74.67 74.51 73.28 73.26 71.47 69.99 69.38 70.39 69.14 67.08 65.11 64.65
78.22 78.58 78.45 78.04 77.37 76.52 74.31 75.72 75.04 74.48 73.37 72.48 71.93 71.49 72.31 69.70 69.50 67.91 65.75 63.98 64.32 64.68
77.47 77.89 78.24 76.65 77.13 76.86 76.08 74.74 74.19 73.80 72.41 71.52 70.29 70.04 69.56 68.02 67.35 65.82 64.50 64.93 64.74 63.98
77.48 77.56 77.08 76.66 76.66 76.32 74.75 74.76 73.35 72.61 71.35 70.24 69.80 69.85 68.40 67.39 65.20 63.79 63.55 63.77 64.64 63.72
77.11 77.21 76.73 76.48 75.24 73.51 72.78 72.00 70.93 71.00 69.72 69.21 68.68 68.35 68.80 65.35 63.72 63.53 63.58 64.13 64.46 64.15
76.37 76.53 76.10 74.77 73.10 72.11 71.59 70.30 70.38 69.43 69.26 68.68 68.19 67.92 65.70 63.77 64.32 63.75 63.30 63.78 63.91 63.72
77.21 76.77 74.51 73.30 72.11 71.49 70.63 70.14 69.09 68.27 67.80 66.90 66.12 64.87 63.17 63.46 63.72 63.77 63.24 63.29 61.74 59.89
76.45 75.33 73.32 71.95 71.03 70.81 69.43 68.15 67.54 66.97 66.43 64.65 62.56 62.92 64.36 64.36 63.02 63.75 63.46 60.41 59.29 59.87
75.54 74.04 72.77 72.10 70.45 68.95 66.97 66.11 66.07 66.00 65.69 65.43 62.14 62.56 62.51 62.60 62.39 62.74 62.86 62.62 61.98 61.47
74.04 72.33 71.24 70.21 68.71 67.61 65.70 64.39 64.34 64.91 65.16 62.51 61.80 60.91 60.79 60.99 63.35 63.74 63.01 62.86 63.08 62.35
72.97 70.41 69.89 67.74 67.44 66.25 64.73 63.87 64.53 64.99 64.79 64.46 59.77 59.36 59.24 60.09 64.14 61.73 62.62 63.13 63.39 62.15
72.10 69.43 68.74 68.41 66.78 65.90 64.36 63.69 63.59 63.75 64.75 64.16 59.54 58.11 58.38 59.45 62.25 61.07 60.03 62.40 63.30 60.14
71.54 69.86 69.63 68.25 66.63 64.19 62.32 62.51 62.92 62.48 63.68 64.59 62.39 59.56 58.13 58.38 60.99 62.53 61.78 59.95 60.28 60.87
MSLP
1010.59 1011.01 1011.52 1011.84 1012.08 1012.45 1012.92 1013.38 1013.88 1014.32 1014.53 1014.87 1015.18 1015.44 1015.70 1016.14 1016.27 1016.45 1016.62 1016.71 1016.66 1016.58
1010.26 1010.65 1010.84 1011.38 1011.80 1012.27 1012.81 1013.42 1013.86 1014.27 1014.63 1015.06 1015.37 1015.56 1015.90 1016.27 1016.64 1016.81 1016.72 1016.84 1016.98 1016.95
1009.57 1010.18 1010.68 1011.18 1011.68 1012.12 1012.78 1013.21 1013.88 1014.50 1014.88 1015.21 1015.61 1015.88 1016.08 1016.32 1016.70 1017.11 1017.20 1017.25 1017.36 1017.36
1008.99 1009.71 1010.37 1011.00 1011.60 1012.20 1012.80 1013.36 1014.07 1014.65 1015.19 1015.48 1015.67 1015.89 1016.34 1016.56 1016.95 1017.29 1017.55 1017.65 1017.63 1017.68
1008.47 1009.20 1009.92 1010.56 1011.37 1012.18 1013.06 1013.80 1014.31 1014.88 1015.27 1015.54 1015.82 1015.99 1016.39 1016.56 1017.09 1017.50 1017.76 1017.94 1017.89 1017.89
1007.92 1008.67 1009.49 1010.46 1011.38 1012.29 1013.04 1013.78 1014.37 1014.85 1015.15 1015.49 1015.89 1016.29 1016.56 1016.88 1017.14 1017.44 1017.71 1017.92 1018.08 1018.03
1007.47 1008.15 1009.10 1010.13 1011.05 1011.90 1012.74 1013.46 1014.16 1014.78 1015.07 1015.33 1015.75 1016.20 1016.64 1017.18 1017.45 1017.63 1017.77 1017.93 1018.16 1018.46
1006.96 1007.86 1008.84 1009.85 1010.79 1011.77 1012.60 1013.40 1013.97 1014.52 1014.85 1015.20 1015.61 1015.84 1016.42 1016.98 1017.35 1017.51 1017.78 1017.99 1018.41 1018.86
1006.63 1007.61 1008.66 1009.93 1011.02 1011.86 1012.67 1013.43 1013.87 1014.53 1014.99 1015.19 1015.18 1015.59 1016.43 1016.83 1017.27 1017.48 1017.68 1018.13 1018.54 1018.99
1006.53 1007.66 1008.87 1009.85 1010.87 1011.85 1012.62 1013.32 1013.80 1014.35 1014.89 1015.40 1015.67 1015.55 1016.13 1016.79 1017.13 1017.39 1017.62 1017.82 1018.16 1018.31
1006.74 1007.71 1008.80 1009.77 1010.69 1011.41 1012.17 1012.85 1013.31 1013.89 1014.39 1015.17 1015.80 1015.91 1016.11 1016.56 1016.81 1017.10 1017.57 1017.89 1017.90 1018.11
1006.28 1007.51 1008.71 1009.80 1010.35 1011.10 1011.89 1012.82 1013.48 1014.05 1014.64 1014.76 1015.44 1016.05 1016.18 1016.54 1016.55 1016.77 1017.32 1017.75 1017.98 1018.13
1006.46 1007.43 1008.90 1009.92 1010.84 1011.60 1012.33 1012.79 1013.19 1013.70 1014.26 1014.71 1015.44 1016.09 1016.36 1016.67 1016.64 1016.64 1017.02 1017.43 1017.73 1018.03
1006.98 1008.50 1009.57 1010.18 1010.82 1011.42 1012.27 1012.87 1013.21 1013.81 1014.27 1014.78 1015.20 1016.03 1016.32 1016.53 1016.58 1016.60 1016.53 1016.89 1017.25 1017.63
Wind_Speed
10 7 8 9 4 5 4 6 7 5 5 4 3 3 1 1 4 4 4 4 5 5
10 10 8 9 5 6 8 7 8 6 5 4 3 1 1 4 4 2 2 5 5 5
13 11 6 6 6 6 7 7 9 6 6 6 4 2 2 5 4 5 4 5 3 4
13 13 9 10 8 6 8 9 8 6 6 5 5 4 6 7 5 5 3 3 2 3
14 13 11 8 9 9 9 7 6 6 6 5 5 5 4 4 6 4 4 3 3 5
15 13 12 11 11 11 9 6 7 7 6 6 6 5 4 6 5 5 5 3 3 3
15 14 13 11 11 12 10 9 9 7 6 6 7 6 7 5 4 5 4 4 5 6
14 14 13 12 12 12 11 9 8 7 7 7 6 8 8 6 5 5 5 5 7 6
16 15 15 14 12 12 11 9 8 8 7 7 8 19 13 8 5 5 5 7 6 5
16 15 15 14 13 12 11 10 9 9 8 5 8 14 14 6 7 5 5 6 6 6
16 16 15 14 14 13 12 11 10 10 9 10 6 9 11 7 6 5 5 5 3 4
17 16 15 15 15 13 12 10 9 8 8 11 10 10 10 7 5 8 5 5 3 2
15 16 14 13 12 10 9 9 8 9 8 8 9 10 9 6 4 8 7 6 5 7
13 12 11 12 10 11 10 9 8 8 8 6 11 9 10 10 6 2 5 9 8 8
Wind_Direction
198 190 179 189 184 181 148 146 144 162 149 130 145 117 119 153 72 43 86 51 19 333
194 196 198 174 192 138 130 137 153 148 142 117 101 136 153 118 111 164 79 88 23 346
193 197 183 154 193 140 141 144 140 147 130 145 140 173 195 134 100 52 13 80 50 353
190 189 184 173 171 137 134 133 140 135 140 148 154 158 89 80 100 84 82 113 90 90
184 185 189 148 148 145 132 130 127 139 156 157 149 130 134 166 116 130 113 89 64 25
181 181 171 148 139 133 132 134 142 162 164 152 142 146 136 101 124 123 117 116 94 99
180 176 155 147 140 143 146 154 154 170 157 154 148 149 117 122 130 137 119 109 82 45
172 152 147 145 144 146 147 157 156 157 160 148 165 158 131 146 161 121 130 105 100 77
150 151 144 141 146 147 152 155 156 163 164 171 193 133 150 152 150 146 145 117 114 143
153 144 147 149 150 152 155 158 164 166 160 182 131 132 132 139 149 159 159 146 173 194
147 147 151 153 156 162 163 165 169 166 168 138 149 148 146 140 166 166 147 149 203 115
153 148 155 165 168 164 161 161 165 166 181 165 153 171 158 162 204 142 167 157 181 157
154 154 168 165 160 158 153 156 162 167 180 153 155 177 174 185 251 157 174 171 176 178
148 145 166 158 162 154 155 159 171 166 174 187 153 179 191 201 237 314 210 175 186 195